,,,PA_Meas_PMT16A,,PR_Meas_QMR101_102,,RH_Meas_QMH101,,SR_Meas_QMS101,,TA_Meas_QMH101,,GenWind,,GenWind,
date,time,status,PA,status,PR,status,RH,status,SR,status,TA,status,DirAvg,status,SpdAvg,
2008-10-01, 00:00:04,VALID,1005.46,VALID,0,VALID,92.546,VALID,0.100563,VALID,23.838,VALID,64,VALID,0.687891,
2008-10-01, 00:01:04,VALID,1005.47,VALID,0,VALID,92.7901,VALID,0.100563,VALID,23.8593,VALID,65,VALID,0.587109,
2008-10-01, 00:02:04,VALID,1005.47,VALID,0,VALID,92.8816,VALID,0.100563,VALID,23.8787,VALID,65,VALID,0.423828,
2008-10-01, 00:03:04,VALID,1005.49,VALID,0,VALID,92.9579,VALID,0.100563,VALID,23.8787,VALID,66,VALID,0.537109,
2008-10-01, 00:04:04,VALID,1005.49,VALID,0,VALID,93.1029,VALID,0.100563,VALID,23.8769,VALID,71,VALID,0.683984,
2008-10-01, 00:05:04,VALID,1005.51,VALID,0,VALID,93.1486,VALID,0,VALID,23.8769,VALID,71,VALID,0.653516,
2008-10-01, 00:06:04,VALID,1005.49,VALID,0,VALID,93.202,VALID,0.100563,VALID,23.9371,VALID,66,VALID,0.705469,
2008-10-01, 00:07:04,VALID,1005.51,VALID,0,VALID,93.1257,VALID,0.100563,VALID,23.9371,VALID,66,VALID,0.510156,
2008-10-01, 00:08:04,VALID,1005.52,VALID,0,VALID,93.0571,VALID,0.100563,VALID,23.8964,VALID,66,VALID,0.276172,
2008-10-01, 00:09:04,VALID,1005.47,VALID,0,VALID,93.0266,VALID,0,VALID,23.8787,VALID,66,VALID,0.113281,
2008-10-01, 00:10:04,VALID,1005.5,VALID,0,VALID,93.0342,VALID,0,VALID,23.8805,VALID,68,VALID,0.2375,
2008-10-01, 00:11:04,VALID,1005.5,VALID,0,VALID,93.08,VALID,0,VALID,23.8398,VALID,65,VALID,0.312891,
2008-10-01, 00:12:04,VALID,1005.49,VALID,0,VALID,93.1257,VALID,0,VALID,23.8009,VALID,35,VALID,0.525,
2008-10-01, 00:13:04,VALID,1005.48,VALID,0,VALID,93.141,VALID,0,VALID,23.7814,VALID,35,VALID,0.469141,
2008-10-01, 00:14:04,VALID,1005.45,VALID,0,VALID,93.1944,VALID,0,VALID,23.7832,VALID,35,VALID,0.364453,
2008-10-01, 00:15:04,VALID,1005.45,VALID,0,VALID,93.202,VALID,0,VALID,23.7637,VALID,35,VALID,0.394531,
2008-10-01, 00:16:04,VALID,1005.43,VALID,0,VALID,93.2325,VALID,0,VALID,23.723,VALID,34,VALID,0.342969,
2008-10-01, 00:17:04,VALID,1005.45,VALID,0,VALID,93.3394,VALID,0,VALID,23.7035,VALID,34,VALID,0.342578,
2008-10-01, 00:18:04,VALID,1005.43,VALID,0,VALID,93.4309,VALID,0,VALID,23.7248,VALID,34,VALID,0.352734,
2008-10-01, 00:19:04,VALID,1005.45,VALID,0,VALID,93.3775,VALID,0,VALID,23.7053,VALID,34,VALID,0.388672,
2008-10-01, 00:20:04,VALID,1005.46,VALID,0,VALID,93.5148,VALID,0,VALID,23.7248,VALID,34,VALID,0.375,
2008-10-01, 00:21:04,VALID,1005.46,VALID,0,VALID,93.5072,VALID,0,VALID,23.6841,VALID,34,VALID,0.25625,
2008-10-01, 00:22:04,VALID,1005.47,VALID,0,VALID,93.5682,VALID,0,VALID,23.6859,VALID,29,VALID,0.561719,
2008-10-01, 00:23:04,VALID,1005.49,VALID,0,VALID,93.5606,VALID,0,VALID,23.6841,VALID,29,VALID,0.308203,
2008-10-01, 00:24:04,VALID,1005.43,VALID,0,VALID,93.5758,VALID,0,VALID,23.6859,VALID,29,VALID,0.483594,
2008-10-01, 00:25:04,VALID,1005.46,VALID,0,VALID,93.6598,VALID,0,VALID,23.6841,VALID,29,VALID,0.207422,
2008-10-01, 00:26:04,VALID,1005.42,VALID,0,VALID,93.7971,VALID,0,VALID,23.7248,VALID,29,VALID,0.419141,
2008-10-01, 00:27:04,VALID,1005.43,VALID,0,VALID,93.8276,VALID,0,VALID,23.7035,VALID,29,VALID,0.0214844,
2008-10-01, 00:28:04,VALID,1005.4,VALID,0,VALID,93.7895,VALID,0,VALID,23.7248,VALID,29,VALID,0,
2008-10-01, 00:29:04,VALID,1005.39,VALID,0,VALID,93.8123,VALID,0,VALID,23.6628,VALID,29,VALID,0.143359,
2008-10-01, 00:30:04,VALID,1005.37,VALID,0,VALID,93.8352,VALID,0,VALID,23.6859,VALID,29,VALID,0.226563,
2008-10-01, 00:31:04,VALID,1005.36,VALID,0,VALID,93.8429,VALID,0,VALID,23.6646,VALID,29,VALID,0,
2008-10-01, 00:32:04,VALID,1005.39,VALID,0,VALID,93.8657,VALID,0,VALID,23.6859,VALID,29,VALID,0,
2008-10-01, 00:33:04,VALID,1005.39,VALID,0,VALID,93.8429,VALID,0,VALID,23.6452,VALID,30,VALID,0.165234,
2008-10-01, 00:34:04,VALID,1005.42,VALID,0,VALID,93.8429,VALID,0,VALID,23.6664,VALID,30,VALID,0.349219,
2008-10-01, 00:35:04,VALID,1005.43,VALID,0,VALID,93.881,VALID,0,VALID,23.6275,VALID,30,VALID,0.128125,
2008-10-01, 00:36:04,VALID,1005.45,VALID,0,VALID,93.9039,VALID,0,VALID,23.6062,VALID,30,VALID,0,
2008-10-01, 00:37:04,VALID,1005.47,VALID,0,VALID,93.9573,VALID,0,VALID,23.608,VALID,30,VALID,0.0808594,
2008-10-01, 00:38:04,VALID,1005.48,VALID,0,VALID,94.0183,VALID,0,VALID,23.5868,VALID,30,VALID,0.407422,
2008-10-01, 00:39:04,VALID,1005.5,VALID,0,VALID,94.0641,VALID,0,VALID,23.608,VALID,30,VALID,0.408594,
2008-10-01, 00:40:04,VALID,1005.51,VALID,0,VALID,94.1251,VALID,0,VALID,23.5868,VALID,28,VALID,0.484766,
2008-10-01, 00:41:04,VALID,1005.49,VALID,0,VALID,94.1785,VALID,0,VALID,23.6062,VALID,30,VALID,0.364062,
2008-10-01, 00:42:04,VALID,1005.52,VALID,0,VALID,94.2243,VALID,0,VALID,23.6062,VALID,29,VALID,0.224609,
2008-10-01, 00:43:04,VALID,1005.51,VALID,0,VALID,94.293,VALID,0,VALID,23.6275,VALID,61,VALID,0.315234,
2008-10-01, 00:44:04,VALID,1005.5,VALID,0,VALID,94.2777,VALID,0,VALID,23.6257,VALID,82,VALID,0.766797,
2008-10-01, 00:45:04,VALID,1005.5,VALID,0,VALID,94.3464,VALID,0,VALID,23.6452,VALID,91,VALID,0.511719,
2008-10-01, 00:46:04,VALID,1005.51,VALID,0,VALID,94.3692,VALID,0,VALID,23.6841,VALID,77,VALID,0.858594,
2008-10-01, 00:47:04,VALID,1005.52,VALID,0,VALID,94.3082,VALID,0,VALID,23.7248,VALID,73,VALID,0.646875,
2008-10-01, 00:48:04,VALID,1005.5,VALID,0,VALID,94.2472,VALID,0,VALID,23.7443,VALID,76,VALID,0.455859,
2008-10-01, 00:49:04,VALID,1005.48,VALID,0,VALID,94.1709,VALID,0,VALID,23.723,VALID,68,VALID,0.584766,
2008-10-01, 00:50:04,VALID,1005.47,VALID,0,VALID,94.0946,VALID,0,VALID,23.7443,VALID,64,VALID,0.164453,
2008-10-01, 00:51:04,VALID,1005.46,VALID,0,VALID,94.0183,VALID,0,VALID,23.7248,VALID,23,VALID,0.464063,
2008-10-01, 00:52:04,VALID,1005.47,VALID,0,VALID,94.0031,VALID,0,VALID,23.6859,VALID,24,VALID,0.329297,
2008-10-01, 00:53:04,VALID,1005.49,VALID,0,VALID,94.0336,VALID,0,VALID,23.6646,VALID,28,VALID,0.365234,
2008-10-01, 00:54:04,VALID,1005.48,VALID,0,VALID,94.0565,VALID,0,VALID,23.6452,VALID,28,VALID,0.0367187,
2008-10-01, 00:55:04,VALID,1005.45,VALID,0,VALID,94.0794,VALID,0,VALID,23.6452,VALID,28,VALID,0.146875,
2008-10-01, 00:56:04,VALID,1005.45,VALID,0,VALID,94.087,VALID,0,VALID,23.6044,VALID,39,VALID,0.171875,
2008-10-01, 00:57:04,VALID,1005.41,VALID,0,VALID,94.148,VALID,0,VALID,23.6275,VALID,73,VALID,0.556641,
2008-10-01, 00:58:04,VALID,1005.41,VALID,0,VALID,94.1785,VALID,0,VALID,23.6275,VALID,73,VALID,0.550781,
2008-10-01, 00:59:04,VALID,1005.39,VALID,0,VALID,94.2167,VALID,0,VALID,23.6257,VALID,73,VALID,0.335547,
2008-10-01, 01:00:04,VALID,1005.41,VALID,0,VALID,94.2014,VALID,0,VALID,23.6257,VALID,73,VALID,0.157422,
2008-10-01, 01:01:04,VALID,1005.4,VALID,0,VALID,94.1785,VALID,0,VALID,23.6062,VALID,73,VALID,0.0183594,
2008-10-01, 01:02:04,VALID,1005.38,VALID,0,VALID,94.1709,VALID,0,VALID,23.5868,VALID,73,VALID,0.0121094,
2008-10-01, 01:03:04,VALID,1005.36,VALID,0,VALID,94.1404,VALID,0,VALID,23.608,VALID,73,VALID,0.198437,
2008-10-01, 01:04:04,VALID,1005.37,VALID,0,VALID,94.1633,VALID,0,VALID,23.5673,VALID,73,VALID,0,
2008-10-01, 01:05:04,VALID,1005.36,VALID,0,VALID,94.1709,VALID,0,VALID,23.5478,VALID,73,VALID,0.321875,
2008-10-01, 01:06:04,VALID,1005.34,VALID,0,VALID,94.1862,VALID,0,VALID,23.5478,VALID,73,VALID,0.289844,
2008-10-01, 01:07:04,VALID,1005.32,VALID,0,VALID,94.2396,VALID,0,VALID,23.5496,VALID,73,VALID,0.365234,
2008-10-01, 01:08:04,VALID,1005.31,VALID,0,VALID,94.2777,VALID,0,VALID,23.5284,VALID,73,VALID,0.132422,
2008-10-01, 01:09:04,VALID,1005.29,VALID,0,VALID,94.2548,VALID,0,VALID,23.5302,VALID,73,VALID,0.183203,
2008-10-01, 01:10:04,VALID,1005.29,VALID,0,VALID,94.2624,VALID,0,VALID,23.4894,VALID,73,VALID,0.0292969,
2008-10-01, 01:11:04,VALID,1005.25,VALID,0,VALID,94.2167,VALID,0,VALID,23.5107,VALID,73,VALID,0.130078,
2008-10-01, 01:12:04,VALID,1005.22,VALID,0,VALID,94.1785,VALID,0,VALID,23.4523,VALID,35,VALID,0.570703,
2008-10-01, 01:13:04,VALID,1005.24,VALID,0,VALID,94.3616,VALID,0,VALID,23.4718,VALID,25,VALID,0.713672,
2008-10-01, 01:14:04,VALID,1005.23,VALID,0,VALID,94.4532,VALID,0,VALID,23.47,VALID,25,VALID,0.155078,
2008-10-01, 01:15:04,VALID,1005.22,VALID,0,VALID,94.415,VALID,0,VALID,23.47,VALID,113,VALID,0.566406,
2008-10-01, 01:16:04,VALID,1005.22,VALID,0,VALID,94.4761,VALID,0,VALID,23.4912,VALID,114,VALID,0.346094,
2008-10-01, 01:17:04,VALID,1005.23,VALID,0,VALID,94.4608,VALID,0,VALID,23.4912,VALID,114,VALID,0.230859,
2008-10-01, 01:18:04,VALID,1005.2,VALID,0,VALID,94.4684,VALID,0,VALID,23.4894,VALID,114,VALID,0.244922,
2008-10-01, 01:19:04,VALID,1005.18,VALID,0,VALID,94.4379,VALID,0,VALID,23.47,VALID,114,VALID,0.338672,
2008-10-01, 01:20:04,VALID,1005.19,VALID,0,VALID,94.415,VALID,0,VALID,23.47,VALID,114,VALID,0.144141,
2008-10-01, 01:21:04,VALID,1005.18,VALID,0,VALID,94.4303,VALID,0,VALID,23.47,VALID,105,VALID,0.419141,
2008-10-01, 01:22:04,VALID,1005.18,VALID,0,VALID,94.4989,VALID,0,VALID,23.4912,VALID,101,VALID,0.279297,
2008-10-01, 01:23:04,VALID,1005.17,VALID,0,VALID,94.4684,VALID,0,VALID,23.5107,VALID,101,VALID,0,
2008-10-01, 01:24:04,VALID,1005.2,VALID,0,VALID,94.415,VALID,0,VALID,23.47,VALID,101,VALID,0,
2008-10-01, 01:25:04,VALID,1005.18,VALID,0,VALID,94.3616,VALID,0,VALID,23.4718,VALID,101,VALID,0,
2008-10-01, 01:26:04,VALID,1005.19,VALID,0,VALID,94.3769,VALID,0,VALID,23.4311,VALID,101,VALID,0.312891,
2008-10-01, 01:27:04,VALID,1005.2,VALID,0,VALID,94.415,VALID,0,VALID,23.4328,VALID,101,VALID,0,
2008-10-01, 01:28:04,VALID,1005.2,VALID,0,VALID,94.4989,VALID,0,VALID,23.4523,VALID,101,VALID,0.267969,
2008-10-01, 01:29:04,VALID,1005.18,VALID,0,VALID,94.4989,VALID,0,VALID,23.4523,VALID,101,VALID,0.172656,
2008-10-01, 01:30:04,VALID,1005.19,VALID,0,VALID,94.4913,VALID,0,VALID,23.4523,VALID,101,VALID,0.274609,
2008-10-01, 01:31:04,VALID,1005.16,VALID,0,VALID,94.4837,VALID,0,VALID,23.4523,VALID,101,VALID,0.0410156,
2008-10-01, 01:32:04,VALID,1005.2,VALID,0,VALID,94.5447,VALID,0,VALID,23.4718,VALID,53,VALID,0.472266,
2008-10-01, 01:33:04,VALID,1005.14,VALID,0,VALID,94.5523,VALID,0,VALID,23.4718,VALID,80,VALID,0.244531,
2008-10-01, 01:34:04,VALID,1005.14,VALID,0,VALID,94.4684,VALID,0,VALID,23.4523,VALID,80,VALID,0,
2008-10-01, 01:35:04,VALID,1005.15,VALID,0,VALID,94.4913,VALID,0,VALID,23.4116,VALID,80,VALID,0,
2008-10-01, 01:36:04,VALID,1005.12,VALID,0,VALID,94.4837,VALID,0,VALID,23.3921,VALID,80,VALID,0,
2008-10-01, 01:37:04,VALID,1005.15,VALID,0,VALID,94.4837,VALID,0,VALID,23.4328,VALID,80,VALID,0.0496094,
2008-10-01, 01:38:04,VALID,1005.17,VALID,0,VALID,94.4989,VALID,0,VALID,23.3921,VALID,80,VALID,0.0796875,
2008-10-01, 01:39:04,VALID,1005.17,VALID,0,VALID,94.5066,VALID,0,VALID,23.3939,VALID,80,VALID,0,
2008-10-01, 01:40:04,VALID,1005.17,VALID,0,VALID,94.5523,VALID,0,VALID,23.3939,VALID,80,VALID,0,
2008-10-01, 01:41:04,VALID,1005.15,VALID,0,VALID,94.6591,VALID,0,VALID,23.3939,VALID,80,VALID,0,
2008-10-01, 01:42:04,VALID,1005.16,VALID,0,VALID,94.6439,VALID,0,VALID,23.3921,VALID,80,VALID,0,
2008-10-01, 01:43:04,VALID,1005.19,VALID,0,VALID,94.5752,VALID,0,VALID,23.3939,VALID,80,VALID,0,
2008-10-01, 01:44:04,VALID,1005.15,VALID,0,VALID,94.5447,VALID,0,VALID,23.3727,VALID,80,VALID,0,
2008-10-01, 01:45:04,VALID,1005.14,VALID,0,VALID,94.4913,VALID,0,VALID,23.3744,VALID,80,VALID,0,
2008-10-01, 01:46:04,VALID,1005.14,VALID,0,VALID,94.4303,VALID,0,VALID,23.3337,VALID,80,VALID,0.355469,
2008-10-01, 01:47:04,VALID,1005.14,VALID,0,VALID,94.4455,VALID,0,VALID,23.3143,VALID,80,VALID,0.268359,
2008-10-01, 01:48:04,VALID,1005.13,VALID,0,VALID,94.4761,VALID,0,VALID,23.3143,VALID,80,VALID,0.459375,
2008-10-01, 01:49:04,VALID,1005.13,VALID,0,VALID,94.5066,VALID,0,VALID,23.316,VALID,80,VALID,0.35625,
2008-10-01, 01:50:05,VALID,1005.13,VALID,0,VALID,94.5066,VALID,0,VALID,23.2754,VALID,80,VALID,0.314844,
2008-10-01, 01:51:05,VALID,1005.12,VALID,0,VALID,94.5981,VALID,0,VALID,23.2754,VALID,62,VALID,0.375,
2008-10-01, 01:52:05,VALID,1005.13,VALID,0,VALID,94.6591,VALID,0,VALID,23.2754,VALID,53,VALID,0.432031,
2008-10-01, 01:53:05,VALID,1005.13,VALID,0,VALID,94.7202,VALID,0,VALID,23.2754,VALID,51,VALID,0.392188,
2008-10-01, 01:54:05,VALID,1005.12,VALID,0,VALID,94.7583,VALID,0,VALID,23.316,VALID,51,VALID,0.426953,
2008-10-01, 01:55:05,VALID,1005.1,VALID,0,VALID,94.7965,VALID,0,VALID,23.2931,VALID,48,VALID,0.401563,
2008-10-01, 01:56:05,VALID,1005.09,VALID,0,VALID,94.7965,VALID,0,VALID,23.2931,VALID,48,VALID,0.308203,
2008-10-01, 01:57:05,VALID,1005.07,VALID,0,VALID,94.7965,VALID,0,VALID,23.3355,VALID,48,VALID,0.4125,
2008-10-01, 01:58:05,VALID,1005.06,VALID,0,VALID,94.8041,VALID,0,VALID,23.3143,VALID,48,VALID,0.382422,
2008-10-01, 01:59:05,VALID,1005.04,VALID,0,VALID,94.7965,VALID,0,VALID,23.3143,VALID,48,VALID,0.354297,
2008-10-01, 02:00:05,VALID,1005.02,VALID,0,VALID,94.7888,VALID,0,VALID,23.2754,VALID,48,VALID,0.448828,
2008-10-01, 02:01:05,VALID,1005,VALID,0,VALID,94.8041,VALID,0,VALID,23.2966,VALID,48,VALID,0.332422,
2008-10-01, 02:02:05,VALID,1005.02,VALID,0,VALID,94.8804,VALID,0.100563,VALID,23.2948,VALID,44,VALID,0.389844,
2008-10-01, 02:03:05,VALID,1005.03,VALID,0,VALID,94.9796,VALID,0,VALID,23.2948,VALID,24,VALID,0.464453,
2008-10-01, 02:04:05,VALID,1005.04,VALID,0,VALID,95.0253,VALID,0,VALID,23.3125,VALID,24,VALID,0.291797,
2008-10-01, 02:05:05,VALID,1005.04,VALID,0,VALID,94.9719,VALID,0,VALID,23.3337,VALID,23,VALID,0.282422,
2008-10-01, 02:06:05,VALID,1005.07,VALID,0,VALID,94.8956,VALID,0,VALID,23.2931,VALID,22,VALID,0.284766,
2008-10-01, 02:07:05,VALID,1005.08,VALID,0,VALID,94.8041,VALID,0,VALID,23.2754,VALID,22,VALID,0.324219,
2008-10-01, 02:08:05,VALID,1005.1,VALID,0,VALID,94.8956,VALID,0.100563,VALID,23.2559,VALID,22,VALID,0.242188,
2008-10-01, 02:09:05,VALID,1005.13,VALID,0,VALID,94.9567,VALID,0,VALID,23.2559,VALID,21,VALID,0.304688,
2008-10-01, 02:10:05,VALID,1005.1,VALID,0,VALID,94.9567,VALID,0,VALID,23.2771,VALID,21,VALID,0.287109,
2008-10-01, 02:11:05,VALID,1005.13,VALID,0,VALID,94.9948,VALID,0,VALID,23.2559,VALID,21,VALID,0.41875,
2008-10-01, 02:12:05,VALID,1005.12,VALID,0,VALID,95.0406,VALID,0,VALID,23.2754,VALID,17,VALID,0.362109,
2008-10-01, 02:13:05,VALID,1005.07,VALID,0,VALID,95.033,VALID,0,VALID,23.2754,VALID,6,VALID,0.4125,
2008-10-01, 02:14:05,VALID,1005.08,VALID,0,VALID,95.0711,VALID,0,VALID,23.316,VALID,359,VALID,0.389844,
2008-10-01, 02:15:05,VALID,1005.07,VALID,0,VALID,95.155,VALID,0,VALID,23.3337,VALID,350,VALID,0.362109,
2008-10-01, 02:16:05,VALID,1005.01,VALID,0,VALID,95.155,VALID,0,VALID,23.3532,VALID,350,VALID,0.403906,
2008-10-01, 02:17:05,VALID,1005.05,VALID,0,VALID,95.1474,VALID,0,VALID,23.3532,VALID,350,VALID,0.304297,
2008-10-01, 02:18:05,VALID,1005,VALID,0,VALID,95.1245,VALID,0,VALID,23.3727,VALID,350,VALID,0.16875,
2008-10-01, 02:19:05,VALID,1004.99,VALID,0,VALID,95.0406,VALID,0,VALID,23.3532,VALID,350,VALID,0.271875,
2008-10-01, 02:20:05,VALID,1005,VALID,0,VALID,95.0177,VALID,0,VALID,23.3532,VALID,350,VALID,0.0449219,
2008-10-01, 02:21:05,VALID,1005.01,VALID,0,VALID,95.0101,VALID,0,VALID,23.3532,VALID,350,VALID,0.319922,
2008-10-01, 02:22:05,VALID,1004.97,VALID,0,VALID,95.0482,VALID,0,VALID,23.3355,VALID,350,VALID,0.283594,
2008-10-01, 02:23:05,VALID,1005.02,VALID,0,VALID,94.9643,VALID,0,VALID,23.3143,VALID,350,VALID,0.299609,
2008-10-01, 02:24:05,VALID,1004.99,VALID,0,VALID,94.9643,VALID,0,VALID,23.3143,VALID,350,VALID,0.430469,
2008-10-01, 02:25:05,VALID,1004.99,VALID,0,VALID,95.0864,VALID,0,VALID,23.3337,VALID,350,VALID,0.373828,
2008-10-01, 02:26:05,VALID,1004.97,VALID,0,VALID,95.0711,VALID,0,VALID,23.3532,VALID,350,VALID,0.473047,
2008-10-01, 02:27:05,VALID,1004.99,VALID,0,VALID,95.1169,VALID,0,VALID,23.3532,VALID,350,VALID,0.282031,
2008-10-01, 02:28:05,VALID,1005,VALID,0,VALID,95.0024,VALID,0,VALID,23.3337,VALID,350,VALID,0.257813,
2008-10-01, 02:29:05,VALID,1004.98,VALID,0,VALID,94.9338,VALID,0,VALID,23.2931,VALID,350,VALID,0.407813,
2008-10-01, 02:30:05,VALID,1005,VALID,0,VALID,94.8346,VALID,0,VALID,23.2559,VALID,350,VALID,0.435547,
2008-10-01, 02:31:05,VALID,1004.96,VALID,0,VALID,94.8117,VALID,0,VALID,23.217,VALID,350,VALID,0.350391,
2008-10-01, 02:32:05,VALID,1004.97,VALID,0,VALID,94.8117,VALID,0,VALID,23.1975,VALID,350,VALID,0.428906,
2008-10-01, 02:33:05,VALID,1004.92,VALID,0,VALID,95.1016,VALID,0,VALID,23.2187,VALID,349,VALID,0.672656,
2008-10-01, 02:34:05,VALID,1004.89,VALID,0,VALID,95.3076,VALID,0,VALID,23.2754,VALID,345,VALID,0.656641,
2008-10-01, 02:35:05,VALID,1004.87,VALID,0,VALID,95.3229,VALID,0,VALID,23.3337,VALID,344,VALID,0.535937,
2008-10-01, 02:36:05,VALID,1004.88,VALID,0,VALID,95.2695,VALID,0,VALID,23.3532,VALID,344,VALID,0.330859,
2008-10-01, 02:37:05,VALID,1004.86,VALID,0,VALID,95.1779,VALID,0,VALID,23.3532,VALID,344,VALID,0.327344,
2008-10-01, 02:38:05,VALID,1004.87,VALID,0,VALID,95.1474,VALID,0,VALID,23.3337,VALID,344,VALID,0.208984,
2008-10-01, 02:39:05,VALID,1004.85,VALID,0,VALID,95.1016,VALID,0.100563,VALID,23.3532,VALID,344,VALID,0.159766,
2008-10-01, 02:40:05,VALID,1004.88,VALID,0,VALID,94.9948,VALID,0,VALID,23.2948,VALID,344,VALID,0,
2008-10-01, 02:41:05,VALID,1004.84,VALID,0,VALID,95.033,VALID,0,VALID,23.2754,VALID,344,VALID,0,
2008-10-01, 02:42:05,VALID,1004.84,VALID,0,VALID,95.0558,VALID,0,VALID,23.2754,VALID,344,VALID,0,
2008-10-01, 02:43:05,VALID,1004.83,VALID,0,VALID,95.033,VALID,0,VALID,23.2966,VALID,344,VALID,0,
2008-10-01, 02:44:05,VALID,1004.81,VALID,0,VALID,95.0406,VALID,0,VALID,23.2754,VALID,344,VALID,0,
2008-10-01, 02:45:05,VALID,1004.8,VALID,0,VALID,95.0558,VALID,0,VALID,23.2559,VALID,344,VALID,0,
2008-10-01, 02:46:05,VALID,1004.75,VALID,0,VALID,95.0024,VALID,0,VALID,23.2577,VALID,344,VALID,0.325781,
2008-10-01, 02:47:05,VALID,1004.73,VALID,0,VALID,94.9338,VALID,0,VALID,23.178,VALID,344,VALID,0.328906,
2008-10-01, 02:48:05,VALID,1004.72,VALID,0,VALID,94.9719,VALID,0,VALID,23.1586,VALID,344,VALID,0.430859,
2008-10-01, 02:49:05,VALID,1004.69,VALID,0,VALID,95.0406,VALID,0,VALID,23.1586,VALID,344,VALID,0.379687,
2008-10-01, 02:50:05,VALID,1004.71,VALID,0,VALID,95.033,VALID,0,VALID,23.1586,VALID,344,VALID,0.391406,
2008-10-01, 02:51:05,VALID,1004.7,VALID,0,VALID,95.0711,VALID,0,VALID,23.1586,VALID,344,VALID,0.345313,
2008-10-01, 02:52:05,VALID,1004.71,VALID,0,VALID,95.1016,VALID,0,VALID,23.1586,VALID,344,VALID,0.078125,
2008-10-01, 02:53:05,VALID,1004.68,VALID,0,VALID,95.0558,VALID,0,VALID,23.1409,VALID,344,VALID,0,
2008-10-01, 02:54:05,VALID,1004.68,VALID,0,VALID,95.0864,VALID,0,VALID,23.1197,VALID,344,VALID,0.251953,
2008-10-01, 02:55:05,VALID,1004.67,VALID,0,VALID,95.155,VALID,0,VALID,23.1197,VALID,344,VALID,0.245703,
2008-10-01, 02:56:05,VALID,1004.66,VALID,0,VALID,95.1779,VALID,0.100563,VALID,23.1197,VALID,344,VALID,0.171875,
2008-10-01, 02:57:05,VALID,1004.65,VALID,0,VALID,95.2084,VALID,0,VALID,23.1391,VALID,344,VALID,0.163281,
2008-10-01, 02:58:05,VALID,1004.62,VALID,0,VALID,95.2008,VALID,0,VALID,23.1603,VALID,344,VALID,0.235938,
2008-10-01, 02:59:05,VALID,1004.6,VALID,0,VALID,95.2847,VALID,0.100563,VALID,23.1586,VALID,344,VALID,0.130078,
2008-10-01, 03:00:05,VALID,1004.62,VALID,0,VALID,95.2923,VALID,0,VALID,23.1993,VALID,344,VALID,0.269531,
2008-10-01, 03:01:05,VALID,1004.6,VALID,0,VALID,95.3229,VALID,0,VALID,23.2187,VALID,344,VALID,0.215234,
2008-10-01, 03:02:05,VALID,1004.64,VALID,0,VALID,95.3152,VALID,0,VALID,23.217,VALID,344,VALID,0.215625,
2008-10-01, 03:03:05,VALID,1004.64,VALID,0,VALID,95.2466,VALID,0,VALID,23.1993,VALID,344,VALID,0.0347656,
2008-10-01, 03:04:05,VALID,1004.64,VALID,0,VALID,95.2542,VALID,0,VALID,23.178,VALID,344,VALID,0,
2008-10-01, 03:05:05,VALID,1004.65,VALID,0,VALID,95.155,VALID,0,VALID,23.1586,VALID,344,VALID,0,
2008-10-01, 03:06:05,VALID,1004.69,VALID,0,VALID,95.1398,VALID,0,VALID,23.1409,VALID,344,VALID,0,
2008-10-01, 03:07:05,VALID,1004.69,VALID,0,VALID,95.1245,VALID,0,VALID,23.1409,VALID,344,VALID,0,
2008-10-01, 03:08:05,VALID,1004.69,VALID,0,VALID,95.1169,VALID,0,VALID,23.1002,VALID,344,VALID,0,
2008-10-01, 03:09:05,VALID,1004.67,VALID,0,VALID,95.1779,VALID,0,VALID,23.0825,VALID,344,VALID,0,
2008-10-01, 03:10:05,VALID,1004.66,VALID,0,VALID,95.1321,VALID,0,VALID,23.063,VALID,344,VALID,0,
2008-10-01, 03:11:05,VALID,1004.67,VALID,0,VALID,95.0864,VALID,0,VALID,23.0436,VALID,344,VALID,0.276172,
2008-10-01, 03:12:05,VALID,1004.66,VALID,0,VALID,95.0253,VALID,0,VALID,22.9834,VALID,344,VALID,0.353516,
2008-10-01, 03:13:05,VALID,1004.65,VALID,0,VALID,94.9796,VALID,0,VALID,22.9657,VALID,344,VALID,0.371094,
2008-10-01, 03:14:05,VALID,1004.66,VALID,0,VALID,94.9567,VALID,0,VALID,22.9268,VALID,344,VALID,0.405078,
2008-10-01, 03:15:05,VALID,1004.67,VALID,0,VALID,95.0558,VALID,0,VALID,22.9073,VALID,344,VALID,0.597266,
2008-10-01, 03:16:05,VALID,1004.69,VALID,0,VALID,95.2618,VALID,0,VALID,22.9268,VALID,344,VALID,0.547266,
2008-10-01, 03:17:05,VALID,1004.73,VALID,0,VALID,95.3839,VALID,0,VALID,22.9657,VALID,344,VALID,0.517969,
2008-10-01, 03:18:05,VALID,1004.75,VALID,0,VALID,95.2618,VALID,0,VALID,22.9463,VALID,344,VALID,0.736328,
2008-10-01, 03:19:05,VALID,1004.77,VALID,0,VALID,95.2313,VALID,0,VALID,22.9463,VALID,347,VALID,0.755078,
2008-10-01, 03:20:05,VALID,1004.77,VALID,0,VALID,95.3076,VALID,0,VALID,22.9251,VALID,351,VALID,0.780469,
2008-10-01, 03:21:05,VALID,1004.75,VALID,0,VALID,95.3457,VALID,0,VALID,22.9445,VALID,354,VALID,0.726953,
2008-10-01, 03:22:05,VALID,1004.77,VALID,0,VALID,95.361,VALID,0,VALID,22.9657,VALID,355,VALID,0.839844,
2008-10-01, 03:23:05,VALID,1004.78,VALID,0,VALID,95.3457,VALID,0,VALID,22.9463,VALID,356,VALID,0.709375,
2008-10-01, 03:24:05,VALID,1004.77,VALID,0,VALID,95.3305,VALID,0.100563,VALID,22.964,VALID,356,VALID,0.663281,
2008-10-01, 03:25:05,VALID,1004.77,VALID,0,VALID,95.4068,VALID,0,VALID,22.964,VALID,352,VALID,0.689844,
2008-10-01, 03:26:05,VALID,1004.76,VALID,0,VALID,95.4449,VALID,0,VALID,22.9834,VALID,352,VALID,0.617578,
2008-10-01, 03:27:05,VALID,1004.77,VALID,0,VALID,95.4754,VALID,0,VALID,23.0029,VALID,352,VALID,0.485156,
2008-10-01, 03:28:05,VALID,1004.75,VALID,0,VALID,95.5822,VALID,0,VALID,23.0418,VALID,352,VALID,0.500781,
2008-10-01, 03:29:05,VALID,1004.78,VALID,0,VALID,95.4678,VALID,0,VALID,23.0418,VALID,352,VALID,0.541797,
2008-10-01, 03:30:05,VALID,1004.78,VALID,0,VALID,95.3457,VALID,0,VALID,22.9834,VALID,352,VALID,0.565234,
2008-10-01, 03:31:05,VALID,1004.78,VALID,0,VALID,95.2771,VALID,0,VALID,22.964,VALID,2,VALID,0.657812,
2008-10-01, 03:32:05,VALID,1004.79,VALID,0,VALID,95.2771,VALID,0,VALID,22.9251,VALID,2,VALID,0.625781,
2008-10-01, 03:33:05,VALID,1004.8,VALID,0,VALID,95.3152,VALID,0,VALID,22.9056,VALID,2,VALID,0.614453,
2008-10-01, 03:34:05,VALID,1004.82,VALID,0,VALID,95.3763,VALID,0,VALID,22.8844,VALID,2,VALID,0.579687,
2008-10-01, 03:35:05,VALID,1004.84,VALID,0,VALID,95.4754,VALID,0,VALID,22.9251,VALID,2,VALID,0.393359,
2008-10-01, 03:36:05,VALID,1004.86,VALID,0,VALID,95.5212,VALID,0,VALID,22.9445,VALID,2,VALID,0.242969,
2008-10-01, 03:37:05,VALID,1004.88,VALID,0,VALID,95.5288,VALID,0,VALID,22.964,VALID,2,VALID,0.275391,
2008-10-01, 03:38:05,VALID,1004.9,VALID,0,VALID,95.5212,VALID,0.100563,VALID,22.9834,VALID,2,VALID,0.221875,
2008-10-01, 03:39:05,VALID,1004.93,VALID,0,VALID,95.5212,VALID,0,VALID,22.964,VALID,2,VALID,0.344922,
2008-10-01, 03:40:05,VALID,1004.96,VALID,0,VALID,95.4831,VALID,0,VALID,22.9834,VALID,2,VALID,0.162109,
2008-10-01, 03:41:05,VALID,1004.98,VALID,0,VALID,95.4983,VALID,0,VALID,22.9622,VALID,2,VALID,0.0488281,
2008-10-01, 03:42:05,VALID,1005.02,VALID,0,VALID,95.5136,VALID,0,VALID,22.9834,VALID,2,VALID,0.582422,
2008-10-01, 03:43:05,VALID,1005.03,VALID,0,VALID,95.6128,VALID,0,VALID,23.0224,VALID,2,VALID,0.589453,
2008-10-01, 03:44:05,VALID,1005.01,VALID,0,VALID,95.6051,VALID,0,VALID,23.0224,VALID,354,VALID,0.966016,
2008-10-01, 03:45:05,VALID,1005.05,VALID,0,VALID,95.7348,VALID,0,VALID,23.0807,VALID,359,VALID,1.1793,
2008-10-01, 03:46:05,VALID,1005.03,VALID,0,VALID,95.7196,VALID,0.100563,VALID,23.1391,VALID,356,VALID,0.965234,
2008-10-01, 03:47:05,VALID,1005.06,VALID,0,VALID,95.7043,VALID,0,VALID,23.1586,VALID,358,VALID,1.00312,